• în România
  • Lista ţărilor
  • Pe 7 zile
  • Temperatura apei
  • Hartă satelitară
  • Meteo pe hartă
  • Widget-uri
  • user-avatar
    Intrare

    Meteo pe oră la Sumgait

    Astăzi, 21 Ianuarie, Duminică

    Timp Temperatura Precipitaţii Vânt Presiune Umiditate
    00:00 +5°C° 0 mm 1 m/s 744 mmHg 89%
    01:00 +4°C° 0 mm 2 m/s 744 mmHg 89%
    02:00 +3°C° 0 mm 3 m/s 743 mmHg 89%
    03:00 +3°C° 0 mm 3 m/s 743 mmHg 89%
    04:00 +3°C° 0 mm 4 m/s 743 mmHg 89%
    05:00 +3°C° 0 mm 4 m/s 743 mmHg 89%
    06:00 +2°C° 0 mm 5 m/s 742 mmHg 88%
    07:00 +3°C° 0 mm 6 m/s 742 mmHg 85%
    08:00 +4°C° 0 mm 6 m/s 742 mmHg 81%
    09:00 +5°C° 0 mm 7 m/s 741 mmHg 77%
    10:00 +6°C° 0 mm 7 m/s 741 mmHg 71%
    11:00 +7°C° 0 mm 8 m/s 740 mmHg 64%
    12:00 +8°C° 0 mm 9 m/s 740 mmHg 58%
    13:00 +8°C° 0 mm 9 m/s 739 mmHg 56%
    14:00 +8°C° 0 mm 9 m/s 739 mmHg 54%
    15:00 +10°C° 0 mm 9 m/s 738 mmHg 52%
    16:00 +8°C° 0 mm 9 m/s 738 mmHg 55%
    17:00 +7°C° 0 mm 9 m/s 739 mmHg 57%
    18:00 +7°C° 0 mm 8 m/s 739 mmHg 60%
    19:00 +6°C° 0 mm 7 m/s 739 mmHg 61%
    20:00 +7°C° 0 mm 6 m/s 739 mmHg 61%
    21:00 +6°C° 0 mm 4 m/s 739 mmHg 61%
    22:00 +6°C° 0 mm 4 m/s 740 mmHg 61%
    23:00 +5°C° 0 mm 3 m/s 740 mmHg 61%

    Mâine, 22 Ianuarie, Luni

    Timp Temperatura Precipitaţii Vânt Presiune Umiditate
    00:00 +6°C° 0 mm 2 m/s 740 mmHg 61%
    01:00 +6°C° 0 mm 2 m/s 740 mmHg 60%
    02:00 +6°C° 0 mm 2 m/s 740 mmHg 59%
    03:00 +6°C° 0 mm 1 m/s 740 mmHg 58%
    04:00 +6°C° 0 mm 1 m/s 740 mmHg 60%
    05:00 +6°C° 0 mm 1 m/s 740 mmHg 62%
    06:00 +6°C° 0 mm 1 m/s 740 mmHg 64%
    07:00 +7°C° 0 mm 1 m/s 740 mmHg 62%
    08:00 +8°C° 0 mm 1 m/s 740 mmHg 60%
    09:00 +9°C° 0 mm 1 m/s 739 mmHg 57%
    10:00 +9°C° 0 mm 2 m/s 739 mmHg 52%
    11:00 +10°C° 0 mm 3 m/s 738 mmHg 46%
    12:00 +11°C° 0 mm 4 m/s 738 mmHg 40%
    13:00 +11°C° 0 mm 4 m/s 737 mmHg 42%
    14:00 +12°C° 0 mm 5 m/s 736 mmHg 43%
    15:00 +12°C° 0 mm 5 m/s 736 mmHg 45%
    16:00 +10°C° 0 mm 5 m/s 735 mmHg 51%
    17:00 +9°C° 0 mm 5 m/s 735 mmHg 57%
    18:00 +8°C° 0 mm 5 m/s 735 mmHg 63%
    19:00 +8°C° 0 mm 5 m/s 735 mmHg 64%
    20:00 +8°C° 0 mm 5 m/s 734 mmHg 64%
    21:00 +7°C° 0 mm 6 m/s 734 mmHg 65%
    22:00 +7°C° 0 mm 6 m/s 734 mmHg 60%
    23:00 +7°C° 0 mm 6 m/s 733 mmHg 54%

    Poimâine, 23 Ianuarie, Marţi

    Timp Temperatura Precipitaţii Vânt Presiune Umiditate
    00:00 +7°C° 0 mm 6 m/s 733 mmHg 49%
    01:00 +5°C° 0 mm 6 m/s 733 mmHg 47%
    02:00 +5°C° 0 mm 6 m/s 733 mmHg 44%
    03:00 +6°C° 0 mm 5 m/s 733 mmHg 42%
    04:00 +5°C° 0 mm 5 m/s 733 mmHg 47%
    05:00 +5°C° 0 mm 5 m/s 733 mmHg 51%
    06:00 +4°C° 0 mm 4 m/s 733 mmHg 56%
    07:00 +5°C° 0 mm 4 m/s 733 mmHg 56%
    08:00 +5°C° 0 mm 3 m/s 734 mmHg 55%
    09:00 +5°C° 0 mm 3 m/s 734 mmHg 55%
    10:00 +8°C° 0 mm 3 m/s 734 mmHg 53%
    11:00 +9°C° 0 mm 3 m/s 734 mmHg 50%
    12:00 +10°C° 0 mm 3 m/s 734 mmHg 48%
    13:00 +10°C° 0 mm 3 m/s 734 mmHg 48%
    14:00 +10°C° 0 mm 3 m/s 734 mmHg 49%
    15:00 +10°C° 0 mm 3 m/s 734 mmHg 50%
    16:00 +9°C° 0 mm 3 m/s 735 mmHg 56%
    17:00 +8°C° 0 mm 2 m/s 735 mmHg 63%
    18:00 +7°C° 0 mm 2 m/s 735 mmHg 69%
    19:00 +7°C° 0 mm 2 m/s 735 mmHg 72%
    20:00 +7°C° 0 mm 1 m/s 735 mmHg 75%
    21:00 +7°C° 0 mm 1 m/s 736 mmHg 78%
    22:00 +7°C° 0 mm 1 m/s 736 mmHg 80%
    23:00 +6°C° 0 mm 1 m/s 736 mmHg 82%

    24 Ianuarie, Miercuri

    Timp Temperatura Precipitaţii Vânt Presiune Umiditate
    00:00 +6°C° 0 mm 1 m/s 735 mmHg 84%
    01:00 +6°C° 0 mm 1 m/s 736 mmHg 84%
    02:00 +6°C° 0 mm 1 m/s 736 mmHg 83%
    03:00 +5°C° 0 mm 1 m/s 736 mmHg 83%
    04:00 +5°C° 0 mm 1 m/s 736 mmHg 82%
    05:00 +5°C° 0 mm 1 m/s 736 mmHg 81%
    06:00 +5°C° 0 mm 1 m/s 737 mmHg 80%
    07:00 +5°C° 0 mm 2 m/s 737 mmHg 78%
    08:00 +6°C° 0 mm 2 m/s 738 mmHg 76%
    09:00 +5°C° 0 mm 3 m/s 739 mmHg 75%
    10:00 +7°C° 0 mm 3 m/s 739 mmHg 72%
    11:00 +7°C° 0 mm 3 m/s 739 mmHg 70%
    12:00 +7°C° 0 mm 4 m/s 740 mmHg 68%
    13:00 +7°C° 0 mm 4 m/s 740 mmHg 67%
    14:00 +7°C° 0 mm 4 m/s 740 mmHg 67%
    15:00 +7°C° 0 mm 4 m/s 741 mmHg 66%
    16:00 +6°C° 0 mm 5 m/s 741 mmHg 71%
    17:00 +5°C° 0 mm 5 m/s 742 mmHg 76%
    18:00 +5°C° 0 mm 5 m/s 743 mmHg 80%
    19:00 +3°C° 0 mm 5 m/s 743 mmHg 81%
    20:00 +3°C° 0 mm 5 m/s 744 mmHg 82%
    21:00 +3°C° 0 mm 5 m/s 744 mmHg 83%
    22:00 +2°C° 0 mm 5 m/s 744 mmHg 83%
    23:00 +2°C° 0 mm 5 m/s 745 mmHg 84%

    25 Ianuarie, Joi

    Timp Temperatura Precipitaţii Vânt Presiune Umiditate
    00:00 +2°C° 0 mm 5 m/s 745 mmHg 84%
    01:00 +2°C° 0 mm 5 m/s 745 mmHg 84%
    02:00 +2°C° 0 mm 5 m/s 745 mmHg 85%
    03:00 +1°C° 0 mm 5 m/s 746 mmHg 85%
    04:00 +1°C° 0 mm 5 m/s 746 mmHg 85%
    05:00 +1°C° 0 mm 5 m/s 746 mmHg 85%
    06:00 +1°C° 0 mm 5 m/s 747 mmHg 85%
    07:00 +2°C° 0 mm 5 m/s 747 mmHg 82%
    08:00 +2°C° 0 mm 5 m/s 747 mmHg 79%
    09:00 +3°C° 0 mm 5 m/s 748 mmHg 76%
    10:00 +3°C° 0 mm 5 m/s 748 mmHg 73%
    11:00 +5°C° 0 mm 5 m/s 748 mmHg 70%
    12:00 +5°C° 0 mm 5 m/s 748 mmHg 67%
    13:00 +5°C° 0 mm 5 m/s 747 mmHg 68%
    14:00 +5°C° 0 mm 5 m/s 747 mmHg 69%
    15:00 +5°C° 0 mm 5 m/s 747 mmHg 70%
    16:00 +5°C° 0 mm 5 m/s 747 mmHg 73%
    17:00 +3°C° 0 mm 5 m/s 747 mmHg 77%
    18:00 +3°C° 0 mm 5 m/s 747 mmHg 80%
    19:00 +3°C° 0 mm 5 m/s 747 mmHg 81%
    20:00 +2°C° 0 mm 5 m/s 748 mmHg 82%
    21:00 +3°C° 0 mm 4 m/s 748 mmHg 83%
    22:00 +3°C° 0 mm 4 m/s 747 mmHg 84%
    23:00 +3°C° 0 mm 4 m/s 747 mmHg 84%

    26 Ianuarie, Vineri

    Timp Temperatura Precipitaţii Vânt Presiune Umiditate
    00:00 +3°C° 0 mm 4 m/s 747 mmHg 85%
    01:00 +3°C° 0 mm 4 m/s 747 mmHg 85%
    02:00 +3°C° 0 mm 4 m/s 747 mmHg 85%
    03:00 +3°C° 0 mm 4 m/s 747 mmHg 85%
    04:00 +3°C° 0 mm 4 m/s 746 mmHg 85%
    05:00 +3°C° 0 mm 4 m/s 746 mmHg 85%
    06:00 +3°C° 0 mm 4 m/s 746 mmHg 85%
    07:00 +3°C° 0 mm 4 m/s 746 mmHg 84%
    08:00 +3°C° 0 mm 4 m/s 746 mmHg 82%
    09:00 +3°C° 0 mm 4 m/s 746 mmHg 81%
    10:00 +3°C° 0,1 mm 4 m/s 746 mmHg 79%
    11:00 +4°C° 0,1 mm 4 m/s 746 mmHg 77%
    12:00 +3°C° 0,1 mm 5 m/s 745 mmHg 76%
    13:00 +3°C° 0 mm 5 m/s 745 mmHg 75%
    14:00 +3°C° 0 mm 5 m/s 744 mmHg 75%
    15:00 +3°C° 0 mm 5 m/s 744 mmHg 74%
    16:00 +3°C° 0 mm 6 m/s 744 mmHg 75%
    17:00 +2°C° 0 mm 6 m/s 744 mmHg 77%
    18:00 +2°C° 0 mm 6 m/s 744 mmHg 78%
    19:00 +2°C° 0,1 mm 6 m/s 744 mmHg 78%
    20:00 +2°C° 0,1 mm 6 m/s 744 mmHg 79%
    21:00 +2°C° 0,1 mm 7 m/s 744 mmHg 79%
    22:00 +2°C° 0,1 mm 7 m/s 744 mmHg 79%
    23:00 0°C° 0,1 mm 7 m/s 743 mmHg 80%
    Arată mai mult